This is the latest recevied weather packets stored in our database for station/object OK1LPD-5. If no packets are shown the sender has not sent any weather packets the latest 10 day(s).
| Time | Temp. | Humidity | Pressure | Rain* | Wind** | Luminosity | Snow |
|---|---|---|---|---|---|---|---|
| 1788557410 | 18.33° C | 99% | 1003.5 hPa | 0 mm | - | - | - |
| 1788556811 | 18.33° C | 99% | 1003.4 hPa | 0 mm | - | - | - |
| 1788556210 | 18.33° C | 98% | 1003.3 hPa | 0 mm | - | - | - |
| 1788555610 | 18.33° C | 97% | 1003.3 hPa | 0 mm | - | - | - |
| 1788555011 | 18.33° C | 97% | 1003.3 hPa | 0 mm | - | - | - |
| 1788554410 | 18.89° C | 96% | 1003.2 hPa | 0 mm | - | - | - |
| 1788553810 | 18.89° C | 95% | 1003 hPa | 0 mm | - | - | - |
| 1788553210 | 18.89° C | 94% | 1003 hPa | 0 mm | - | - | - |
| 1788552610 | 18.89° C | 94% | 1003 hPa | 0 mm | - | - | - |
| 1788552010 | 19.44° C | 92% | 1003.1 hPa | 0 mm | - | - | - |
| 1788551410 | 19.44° C | 91% | 1002.9 hPa | 0 mm | - | - | - |
| 1788550810 | 20° C | 89% | 1002.9 hPa | 0 mm | - | - | - |
| 1788550210 | 20° C | 87% | 1002.8 hPa | 0 mm | - | - | - |
| 1788549610 | 20.56° C | 86% | 1002.8 hPa | 0 mm | - | - | - |
| 1788549010 | 20.56° C | 84% | 1002.7 hPa | 0 mm | - | - | - |
| 1788548411 | 21.11° C | 82% | 1002.8 hPa | 0 mm | - | - | - |
| 1788547810 | 21.67° C | 81% | 1002.5 hPa | 0 mm | - | - | - |
| 1788547209 | 22.22° C | 79% | 1002.6 hPa | 0 mm | - | - | - |
| 1788546610 | 22.22° C | 77% | 1002.5 hPa | 0 mm | - | - | - |
| 1788546009 | 22.78° C | 75% | 1002.3 hPa | 0 mm | - | - | - |
| 1788545410 | 23.89° C | 73% | 1002.3 hPa | 0 mm | - | - | - |
| 1788544810 | 24.44° C | 71% | 1002.2 hPa | 0 mm | - | - | - |
| 1788544210 | 25° C | 69% | 1002 hPa | 0 mm | - | - | - |
| 1788543609 | 25.56° C | 67% | 1002 hPa | 0 mm | - | - | - |
| 1788543010 | 26.11° C | 66% | 1001.7 hPa | 0 mm | - | - | - |
* Rain latest hour (hover to see other rain measurements)
** Current wind speed in m/s (hover to see current wind gust speed)